FENGYUN 1C DEB, 31464

Orbit data source: Space-Track

FENGYUN 1C DEB, 31464 is space debris in SSO originally from a launch on Mon, 10 May 1999 UTC launched from the Taiyaun Space Center, China (TSC). Fengyun 1C debris stems from the Chinese weather satellite Fengyun-1C, which was intentionally destroyed by a Chinese anti-satellite missile in 2007. This event dramatically increased the amount of space debris, with thousands of trackable fragments posing hazards to satellites and human spaceflight. The Fengyun 1C debris cloud has become a focal point in discussions about space sustainability and the need for international regulations to prevent the creation of new debris.

Loading next visibility...
Identifier
31464, 1999-025BVC
Orbit
SSO
Country
Flag of CNCN / PRC
Related business
Manufacturer
Unknown
Mission
Spacecraft
Bus & Motor
Unknown
Mass
Unknown
Launch date (UTC)
1999-05-10 (27 years ago)
Launch vehicle
Unknown
Launch site
Taiyaun Space Center, China (TSC)
Object type
Payload
Rocket body
Debris
Shape & HBR
Unknown shape, 0.1 m
Radar Cross Section
Small (<0.1 m²)

Expand to show TLE details & history
Last TLE update: 18 hours ago

TLE from 18 hours ago
0 FENGYUN 1C DEB
1 31464U 99025BVC 26207.94467771  .00000372  00000-0  22248-3 0  9998
2 31464  98.7659 255.1994 0042770 321.7063 161.2557 14.12703351978739
Epoch: 2026-07-26T22:40Z
TLE epoch observation values (Epoch: 2026-07-26T22:40:20.154Z)
Latitude
55.96829°
Longitude
163.60872°
Altitude
888.716 km
Speed
7.398 km/s
True Right ascension
05h 53m 18s
True Declination
55° 48' 41"
Sunlit
Object was in daylight at epoch
Visualization orbit readout
Latitude
Unknown
Longitude
Unknown
Altitude
Unknown
Speed
Unknown
Apparent Right ascension
Unknown
Apparent Declination
Unknown
Sunlit
N/A
Visualization observer readout
Local Sidereal Time
05:38:24
Azimuth
Unknown
Elevation
Unknown
Doppler factor
Unknown
Orbital elements
Apogee altitude
878.21 km
Perigee altitude
816.403 km
Semi-major axis
7,225.444 km
Eccentricity
0.00428
Inclination
98.7659°
RAAN
255.1994°
Arg. of periapsis
321.7063°
True anomaly
161.4124°
Mean anomaly
161.2557°
Eccentric anomaly
161.33413°
Mean motion
3.53384 °/min
Orbital period
101.87 mins
BSTAR
0.00022248
Loading maneuver chart data...
Computing Atmospheric mass density...

Documentation

Showing up to 5 results
|